Date,TemperatureHighF,TemperatureAvgF,TemperatureLowF,DewpointHighF,DewpointAvgF,DewpointLowF,HumidityHigh,HumidityAvg,HumidityLow,PressureMaxIn,PressureMinIn,WindSpeedMaxMPH,WindSpeedAvgMPH,GustSpeedMaxMPH,PrecipitationSumIn
2013-1-1,36,36,34,18,16,15,49,44,42,29.83,29.56,19,4,19,0.00
2013-1-2,36,36,36,16,16,16,43,43,43,29.56,29.56,2,2,19,0.00
2013-1-3,36,36,36,16,16,16,43,43,43,29.56,29.56,2,2,19,0.00
2013-1-4,36,36,36,16,16,16,43,43,43,29.56,29.56,2,2,19,0.00
2013-1-5,36,36,36,16,16,16,43,43,43,29.56,29.56,2,2,19,0.00
2013-1-6,36,36,36,16,16,16,43,43,43,29.56,29.56,2,2,19,0.00
2013-1-7,36,36,36,16,16,16,43,43,43,29.56,29.56,2,2,19,0.00
2013-1-8,36,32,0,16,14,-4,89,47,43,30.20,29.56,2,2,19,0.00
2013-1-9,36,10,2,16,5,-2,98,80,43,30.35,29.56,7,1,19,0.00
2013-1-10,17,12,9,15,9,5,93,85,75,30.24,30.05,6,0,6,0.00
2013-1-11,22,16,12,16,13,10,93,87,74,30.33,30.02,7,0,7,0.00
2013-1-12,33,25,13,25,21,12,93,85,69,30.33,29.86,13,2,13,0.00
2013-1-13,39,36,32,33,30,24,97,81,68,29.88,29.63,12,2,12,0.12
2013-1-14,41,36,25,35,32,24,97,88,74,29.93,29.32,12,2,12,0.16
2013-1-15,25,14,10,24,11,-50,95,90,88,30.37,29.93,10,1,10,0.00
2013-1-16,16,14,12,12,9,7,92,80,73,30.37,29.98,4,0,5,0.00
2013-1-17,13,5,-4,10,0,-11,87,79,72,30.32,29.94,12,2,12,0.00
2013-1-18,4,-2,-7,-8,-11,-14,74,66,53,30.62,30.32,10,1,10,0.00
2013-1-19,10,8,4,-3,-7,-10,59,50,45,30.62,30.26,18,2,18,0.00
2013-1-20,10,9,7,8,4,-5,90,81,56,30.26,30.18,8,0,8,0.00
2013-1-21,9,8,6,6,4,2,92,86,81,30.31,30.19,7,0,7,0.00
2013-1-22,15,11,8,8,5,4,82,79,71,30.19,29.89,6,0,6,0.00
2013-1-23,10,8,4,5,2,-3,81,77,72,29.90,29.76,6,0,6,0.00
2013-1-24,4,-1,-8,0,-5,-12,82,48,68,30.01,29.81,2,0,2,0.00
2013-1-25,0,-6,-13,0,-11,-22,72,34,57,30.19,30.01,6,0,6,0.00
2013-1-26,-14,-20,-24,-19,-25,-29,83,76,64,30.36,30.19,4,0,4,0.00
2013-1-27,-24,-26,-30,-28,-31,-35,79,76,74,30.82,30.36,2,0,2,0.00
2013-1-28,-3,-12,-29,-14,-20,-35,92,66,55,30.85,30.27,16,2,16,0.00
2013-1-29,-2,-5,-8,-11,-16,-20,77,60,51,30.27,30.07,13,1,13,0.00
2013-1-30,14,3,-6,8,-2,-12,82,74,74,30.14,29.87,7,1,7,0.00
2013-1-31,9,7,6,7,4,1,92,86,79,30.28,29.89,7,1,7,0.00
2013-2-1,18,12,7,13,8,4,91,83,69,30.33,30.04,9,1,9,0.00
2013-2-2,28,20,14,15,10,5,73,65,54,30.04,29.65,6,0,6,0.00
2013-2-3,25,20,12,17,14,9,89,75,65,29.66,29.45,5,0,5,0.00
2013-2-4,23,16,11,21,14,8,100,90,86,29.81,29.60,4,0,4,0.00
2013-2-5,18,11,0,16,10,0,94,80,85,29.79,29.74,7,0,7,0.00
2013-2-6,10,5,0,8,2,-3,99,88,87,29.88,29.74,2,0,2,0.00
2013-2-7,21,11,1,17,8,-2,92,87,77,29.86,29.47,4,0,4,0.00
2013-2-8,16,11,10,13,9,8,92,90,87,29.96,29.48,2,0,2,0.00
2013-2-9,34,22,11,24,16,8,90,76,62,29.96,29.15,18,3,18,0.00
2013-2-10,37,28,11,28,21,7,92,76,63,29.61,29.08,15,2,15,0.03
2013-2-11,17,15,14,15,13,12,93,91,90,29.86,29.61,5,0,5,0.00
2013-2-12,21,17,0,15,14,0,93,86,73,29.94,29.86,7,0,7,0.00
2013-2-13,28,23,0,17,13,0,76,58,58,29.93,29.88,8,1,8,0.00
2013-2-14,30,27,24,21,13,10,89,54,44,29.89,29.47,15,3,15,0.00
2013-2-15,24,8,-2,22,5,-5,92,87,83,30.20,29.56,9,1,9,0.00
2013-2-16,7,0,-3,1,-4,-7,87,83,70,30.27,30.06,5,0,5,0.00
2013-2-17,8,-3,-10,1,-8,-14,86,81,67,30.34,29.98,6,0,6,0.00
2013-2-18,-9,-12,-15,-13,-16,-19,83,82,81,30.45,30.34,7,0,7,0.00
2013-2-19,0,-7,-13,-8,-13,-18,83,76,64,30.34,29.78,12,1,12,0.00
2013-2-20,6,0,-4,-4,-7,-11,85,72,60,29.78,29.56,6,0,6,0.00
2013-2-21,2,-1,-5,-3,-6,-9,85,81,72,29.61,29.51,4,0,4,0.00
2013-2-22,-5,-7,-8,-9,-11,-12,85,82,76,29.80,29.54,7,0,7,0.00
2013-2-23,13,4,-5,6,-3,-10,80,73,62,29.74,29.49,10,0,10,0.00
2013-2-24,15,9,2,7,2,-4,92,73,56,29.84,29.51,4,0,6,0.00
2013-2-25,32,22,10,15,10,3,80,62,46,29.90,29.84,8,1,8,0.09
2013-2-26,29,26,23,11,9,4,56,48,37,29.89,29.60,14,2,14,0.00
2013-2-27,32,27,24,14,12,10,57,51,45,29.60,29.45,14,3,14,0.00
2013-2-28,35,28,23,13,11,9,64,47,35,29.58,29.50,8,1,8,0.01
2013-3-1,23,10,6,12,6,2,92,84,63,30.15,29.58,7,1,7,0.00
2013-3-2,21,14,8,15,10,0,90,85,72,30.30,30.15,6,0,6,0.00
2013-3-3,29,21,14,15,13,10,92,71,53,30.54,30.30,5,0,5,0.00
2013-3-4,33,27,20,15,12,10,66,54,43,30.58,30.44,5,0,5,0.00
2013-3-7,38,33,25,18,16,12,64,49,41,29.98,29.54,8,4,22,0.00
2013-3-8,43,39,36,23,20,16,56,47,42,29.74,29.61,5,2,14,0.03
2013-3-9,37,31,22,25,23,16,93,71,56,30.12,29.74,2,1,10,0.02
2013-3-10,26,21,18,24,17,11,94,82,63,30.41,30.13,3,1,9,0.00
2013-3-11,23,18,14,13,11,7,87,76,65,30.71,30.43,4,1,17,0.00
2013-3-12,23,16,11,7,2,-6,72,54,34,30.72,30.50,2,1,7,0.00
2013-3-13,15,8,-5,-1,-9,-18,55,47,36,30.49,30.37,29,4,29,0.01
2013-3-14,15,5,-6,-7,-13,-20,53,44,34,30.38,30.30,27,6,27,0.00
2013-3-15,20,12,7,-7,-11,-14,43,35,25,30.34,30.10,18,4,18,0.00
2013-3-16,24,16,9,3,-3,-9,50,43,37,30.33,30.14,13,2,13,0.00
2013-3-17,18,12,5,1,-1,-4,67,54,47,30.43,30.29,5,0,5,0.00
2013-3-18,16,10,4,2,-2,-6,80,60,45,30.29,30.16,6,1,8,0.00
2013-3-19,16,9,4,-1,-5,-10,65,54,39,30.28,30.18,8,1,8,0.00
2013-3-20,8,3,-5,2,-7,-12,83,65,50,30.19,30.10,10,1,10,0.00
2013-3-21,18,9,2,11,3,-1,88,76,49,30.28,30.15,11,3,11,0.00
2013-3-22,28,21,14,14,5,-1,61,49,41,30.19,29.83,16,4,16,0.00
2013-3-23,25,3,-4,17,-4,-11,89,74,56,30.22,29.83,12,2,12,0.00
2013-3-24,11,5,-1,4,-3,-10,86,68,54,30.21,29.91,6,0,6,0.00
2013-3-25,5,2,-1,2,-1,-5,87,85,80,29.93,29.78,8,1,12,0.00
2013-3-26,2,-3,-7,-5,-9,-13,95,76,57,30.38,29.93,14,2,14,0.00
2013-3-27,9,0,-10,-3,-9,-14,92,67,52,30.44,30.31,9,1,9,0.00
2013-3-28,30,19,9,11,3,-4,60,48,37,30.31,30.04,9,1,9,0.10
2013-3-29,41,32,26,18,14,9,53,46,36,30.04,29.97,8,1,9,0.03
2013-3-30,37,30,21,18,15,10,69,54,44,30.32,30.02,7,1,7,0.00
2013-3-31,37,32,28,27,22,15,90,68,52,30.36,30.25,7,1,7,0.00
2013-4-1,34,30,25,27,23,15,94,76,56,30.25,30.17,14,1,14,0.01
2013-4-2,34,27,22,18,15,13,71,61,50,30.32,30.19,11,1,11,0.00
2013-4-3,29,23,16,13,7,-2,65,51,35,30.59,30.31,22,3,25,0.00
2013-4-4,27,19,14,0,-2,-5,52,40,25,30.60,30.22,22,5,22,0.00
2013-4-5,15,10,3,1,-6,-10,58,47,37,30.22,29.87,24,6,24,0.00
2013-4-6,18,9,1,-2,-6,-10,59,50,38,29.87,29.75,11,1,11,0.00
2013-4-7,7,4,0,4,-1,-7,96,79,55,30.07,29.78,6,0,6,0.00
2013-4-8,11,5,1,7,2,-3,89,86,80,30.09,29.62,8,1,8,0.00
2013-4-9,9,6,4,6,3,1,98,88,86,29.62,29.29,10,1,10,0.00
2013-4-10,11,5,0,2,-1,-5,87,75,57,30.11,29.59,16,2,16,0.00
2013-4-11,11,4,-2,1,-4,-7,80,69,57,30.41,30.11,8,1,8,0.00
2013-4-12,22,12,2,6,2,-2,88,65,42,30.51,30.41,9,1,9,0.07
2013-4-13,24,16,7,4,1,-2,67,53,41,30.62,30.50,9,1,9,0.00
2013-4-14,25,19,12,18,8,0,79,65,46,30.70,30.62,8,1,8,0.00
2013-4-15,27,22,20,15,7,4,78,52,39,30.67,30.58,17,4,17,0.00
2013-4-16,26,21,16,14,7,3,71,55,46,30.58,30.38,9,2,16,0.00
2013-4-17,26,22,16,10,8,6,64,55,45,30.52,30.38,20,4,20,0.00
2013-4-18,28,22,16,8,5,2,57,48,37,30.57,30.52,19,4,19,0.00
2013-4-19,38,28,17,13,8,1,63,44,24,30.62,30.54,11,2,17,0.01
2013-4-20,41,34,27,13,9,7,44,36,26,30.55,30.40,9,1,9,0.00
2013-4-21,42,34,25,14,11,6,56,39,27,30.49,30.42,10,1,10,0.00
2013-4-22,44,36,26,16,12,6,58,38,28,30.59,30.49,10,1,10,0.00
2013-4-23,46,38,31,19,14,11,48,38,26,30.52,30.29,16,2,16,0.00
2013-4-24,36,31,28,28,24,14,96,78,41,30.29,30.08,18,3,18,0.08
2013-4-25,30,24,17,19,3,-5,69,40,31,30.22,30.11,17,2,17,0.00
2013-4-26,28,22,16,22,11,5,93,64,47,30.14,29.75,8,1,8,0.00
2013-4-27,25,22,15,20,6,-10,93,53,22,30.27,29.80,19,3,19,0.00
2013-4-28,33,22,13,16,2,-7,55,42,34,30.31,30.24,12,1,12,0.00
2013-4-29,29,26,21,26,19,13,95,76,55,30.27,30.21,12,2,12,0.01
2013-4-30,33,28,25,27,25,21,96,89,71,30.21,29.99,9,1,9,0.14
2013-5-1,34,27,20,25,20,12,92,76,58,29.99,29.78,12,2,12,0.09
2013-5-2,35,26,18,22,18,12,92,70,57,30.06,29.83,10,1,10,0.01
2013-5-3,38,32,25,32,27,20,95,84,64,30.06,29.96,10,1,10,0.04
2013-5-4,32,25,20,24,21,16,96,84,59,30.12,30.01,7,1,7,0.00
2013-5-5,37,30,23,20,15,9,82,55,33,30.26,30.12,14,2,14,0.01
2013-5-6,41,33,25,17,13,8,59,44,28,30.32,30.24,14,2,14,0.00
2013-5-7,42,35,29,21,17,13,62,47,31,30.37,30.32,13,1,15,0.00
2013-5-8,48,39,30,22,18,16,60,43,28,30.45,30.35,13,2,13,0.00
2013-5-9,55,46,37,23,20,18,51,37,24,30.47,30.30,9,1,9,0.00
2013-5-10,54,49,44,26,22,19,49,35,27,30.32,30.04,13,1,13,0.00
2013-5-11,56,50,43,28,24,19,57,36,30,30.04,29.74,10,1,10,0.00
2013-5-12,48,42,36,32,28,22,72,59,40,29.75,29.56,15,2,15,0.00
2013-5-13,36,27,19,27,7,1,70,43,34,29.76,29.59,13,2,13,0.00
2013-5-14,38,30,23,16,12,8,60,47,38,29.81,29.75,13,1,13,0.00
2013-5-15,45,37,29,21,15,9,53,41,31,29.82,29.74,16,2,17,0.00
2013-5-16,48,42,34,28,22,18,58,45,31,29.77,29.51,12,2,18,0.00
2013-5-17,41,34,24,32,28,22,96,82,57,29.75,29.47,10,1,10,0.03
2013-5-18,30,24,19,22,10,3,93,58,34,30.32,29.75,13,3,13,0.02
2013-5-19,41,31,20,14,9,5,56,40,28,30.71,30.32,12,1,12,0.00
2013-5-20,50,41,30,18,14,11,53,35,22,30.75,30.54,14,2,14,0.00
2013-5-21,58,50,38,20,16,12,44,27,18,30.55,30.24,13,2,13,0.00
2013-5-22,63,54,46,27,24,17,41,31,20,30.24,30.04,14,2,14,0.00
2013-5-23,58,51,46,36,31,26,56,46,41,30.17,30.08,7,1,7,0.00
2013-6-18,77,76,74,43,43,42,32,31,30,29.96,29.95,9,2,9,0.00
2013-6-20,78,75,73,44,42,38,35,31,24,29.86,29.83,6,0,6,0.00
2013-6-21,73,62,57,56,50,40,88,66,35,29.97,29.84,10,0,10,0.02
2013-6-22,70,63,52,49,42,34,78,47,34,29.97,29.78,7,0,8,0.00
2013-6-23,79,72,66,51,45,37,57,40,24,29.76,29.65,9,1,13,0.00
2013-6-24,82,76,71,52,47,41,49,36,24,29.71,29.66,12,2,17,0.00
2013-6-25,86,79,68,59,51,47,57,39,27,29.72,29.66,12,2,19,0.00
2013-6-26,87,80,67,55,52,49,59,38,31,29.76,29.71,7,0,7,0.00
2013-6-27,78,71,62,62,57,48,90,63,37,30.03,29.76,12,0,12,0.03
2013-6-28,74,68,62,60,56,52,82,67,50,30.10,30.03,8,0,8,0.00
2013-6-29,72,66,61,60,57,52,89,72,51,30.07,29.97,5,0,5,0.00
2013-6-30,81,71,65,57,53,46,61,53,38,29.97,29.68,12,1,12,0.00
2013-7-1,75,66,56,53,48,44,86,54,33,29.70,29.49,11,0,12,0.27
2013-7-2,67,60,49,47,43,39,87,55,39,29.75,29.59,15,1,15,0.10
2013-7-3,62,58,48,47,43,39,88,58,49,30.00,29.81,2,0,8,0.00
2013-7-4,63,58,52,47,41,38,74,54,43,30.05,29.97,16,1,16,0.00
2013-7-5,60,58,55,45,43,41,66,58,49,30.08,30.06,8,0,8,0.02
2013-7-6,70,61,53,46,43,40,67,53,37,30.07,29.83,12,1,12,0.00
2013-7-7,68,62,56,51,44,39,65,53,40,29.83,29.60,15,1,15,0.02
2013-7-8,59,53,0,100,50,45,97,80,6,29.81,29.62,14,0,80,0.18
2013-7-9,60,53,47,51,49,46,98,88,66,30.08,29.82,2,0,9,0.05
2013-7-10,54,50,46,50,48,45,98,93,82,30.15,30.05,9,0,9,0.35
2013-7-11,63,56,49,52,49,46,98,80,57,30.19,30.14,18,0,18,0.01
2013-7-12,75,65,56,46,42,33,65,45,23,30.15,30.05,13,2,18,0.00
2013-7-13,80,70,60,44,41,39,51,36,25,30.10,30.05,11,1,12,0.00
2013-7-14,84,73,61,55,47,41,57,41,25,30.18,30.08,9,0,9,0.00
2013-7-15,77,69,61,56,52,48,83,55,39,30.24,30.16,7,0,7,0.01
2013-7-16,64,60,57,55,52,49,90,75,64,30.23,30.17,5,0,13,0.00
2013-7-17,67,59,54,54,51,49,90,75,54,30.19,30.14,6,0,8,0.00
2013-7-18,68,60,54,55,51,47,97,74,49,30.23,30.12,9,0,9,0.59
2013-7-19,56,54,52,56,54,51,99,98,97,30.20,30.14,10,0,13,0.56
2013-7-20,58,53,50,54,51,50,100,94,78,30.21,30.17,9,1,9,0.13
2013-7-21,63,55,50,53,50,48,97,84,64,30.27,30.19,7,0,7,0.00
2013-7-22,68,60,50,54,50,48,95,73,55,30.30,30.20,7,0,9,0.00
2013-7-23,74,68,56,56,54,50,87,62,49,30.21,30.10,5,0,10,0.00
2013-7-24,70,63,59,59,56,54,87,77,64,30.10,30.03,6,0,9,0.00
2013-7-25,71,62,55,56,50,43,87,67,39,30.15,30.04,8,0,8,0.00
2013-7-26,70,61,53,54,50,48,85,69,49,30.28,30.14,7,0,9,0.00
2013-7-27,75,66,57,58,55,52,87,70,53,30.34,30.28,4,0,6,0.00
2013-7-28,83,72,61,59,54,50,74,56,34,30.30,30.12,8,0,8,0.00
2013-7-29,76,68,61,57,54,50,78,61,45,30.19,30.12,11,1,11,0.00
2013-7-30,74,64,58,56,52,49,83,65,45,30.26,30.18,7,0,9,0.00
2013-7-31,62,58,56,54,50,49,81,75,66,30.25,30.22,5,0,5,0.00
2013-8-1,80,75,60,55,48,46,72,41,33,30.11,29.89,8,0,8,0.00
2013-8-2,80,73,66,53,46,42,60,40,27,29.92,29.78,11,0,11,0.00
2013-8-3,78,69,65,49,42,34,55,38,29,29.79,29.70,15,1,15,0.00
2013-8-4,70,63,58,48,45,43,64,52,39,29.97,29.79,7,0,11,0.00
2013-8-5,72,62,53,53,47,43,86,61,37,30.01,29.95,9,0,9,0.00
2013-8-6,77,68,61,48,43,40,61,42,28,30.02,29.88,19,1,19,0.00
2013-8-7,81,71,63,50,46,41,50,41,26,29.89,29.67,12,1,12,0.00
2013-8-8,77,69,61,49,42,38,56,40,25,29.73,29.68,8,0,8,0.00
2013-8-9,67,63,58,49,44,39,69,50,39,29.77,29.70,11,0,11,0.01
2013-8-10,63,60,55,51,47,44,77,64,52,30.08,29.76,8,0,8,0.00
2013-8-11,74,64,54,49,46,44,70,53,38,30.14,30.02,12,0,12,0.00
2013-8-12,73,63,54,58,54,48,88,72,56,30.12,30.04,9,0,9,0.00
2013-8-13,77,65,56,60,56,53,93,73,54,30.06,29.90,4,0,6,0.00
2013-8-14,70,62,57,58,55,51,92,77,60,29.96,29.88,3,0,7,0.01
2013-8-15,61,58,54,57,54,49,96,87,74,29.94,29.77,11,0,11,0.30
2013-8-16,65,58,52,56,53,48,98,86,67,29.79,29.72,9,0,11,0.01
2013-8-17,70,62,55,56,51,46,81,68,49,29.73,29.57,10,0,10,0.00
2013-8-18,66,58,52,56,51,47,88,76,56,29.64,29.57,7,0,7,0.03
2013-8-19,61,55,50,52,49,44,94,81,56,29.74,29.64,9,0,9,0.10
2013-8-20,50,48,46,50,48,45,99,97,91,29.88,29.73,10,0,10,1.07
2013-8-21,58,50,44,48,43,39,99,81,52,29.92,29.81,7,0,7,0.01
2013-8-22,62,54,50,50,44,38,96,69,56,29.82,29.66,6,0,6,0.15
2013-8-23,52,49,46,51,48,42,100,96,81,29.79,29.60,14,1,14,0.63
2013-8-24,56,48,42,42,37,33,89,69,45,30.03,29.78,12,1,12,0.00
2013-8-25,57,48,39,36,33,30,74,57,38,30.03,29.86,12,1,12,0.00
2013-8-26,60,52,44,36,33,31,62,50,35,29.93,29.87,12,2,12,0.00
2013-8-27,60,53,47,46,39,34,73,58,51,29.90,29.74,9,1,9,0.00
2013-8-28,55,49,46,46,44,40,97,83,56,29.81,29.74,6,0,6,0.03
2013-8-29,52,50,47,49,47,44,98,90,78,29.95,29.76,4,0,7,0.10
2013-8-30,52,47,43,47,44,37,99,88,61,30.07,29.95,7,0,7,0.05
2013-8-31,47,42,38,37,31,19,80,67,35,30.09,30.03,8,1,8,0.00
2013-9-1,48,44,40,40,32,24,80,62,48,30.03,29.78,12,1,12,0.00
2013-9-2,57,50,44,51,47,39,97,88,75,29.78,29.49,10,1,11,0.28
2013-9-3,66,58,51,52,47,44,93,68,52,29.53,29.29,17,1,17,0.12
2013-9-4,56,51,48,49,46,43,94,83,71,29.76,29.43,10,1,10,0.04
2013-9-5,56,48,41,47,43,39,98,83,65,30.07,29.76,7,0,7,0.00
2013-9-6,54,49,47,45,42,38,91,76,58,30.10,29.56,14,1,14,0.07
2013-9-7,54,50,44,50,46,42,98,86,76,29.77,29.57,8,0,8,0.01
2013-9-8,53,49,44,48,47,44,100,93,77,29.88,29.56,13,1,13,0.24
2013-9-9,58,50,44,48,45,41,99,83,63,29.92,29.79,9,1,9,0.01
2013-9-10,64,57,52,47,42,40,73,60,42,29.80,29.74,11,1,11,0.00
2013-9-11,56,52,46,47,43,41,97,72,58,29.80,29.64,10,1,10,0.26
2013-9-12,56,50,40,47,44,40,99,79,63,30.04,29.89,4,0,8,0.01
2013-9-13,54,48,45,48,43,40,93,83,67,30.04,29.95,6,0,6,0.04
2013-9-14,49,45,40,46,41,35,100,89,66,30.17,30.04,6,0,6,0.14
2013-9-15,50,42,35,38,34,29,92,73,49,30.23,30.08,18,1,18,0.00
2013-9-16,51,43,38,31,27,24,62,55,39,30.08,29.78,19,3,19,0.00
2013-9-17,40,35,31,28,24,21,78,66,56,29.79,29.74,13,2,20,0.00
2013-9-18,33,30,28,30,28,26,97,92,77,29.86,29.77,4,0,5,0.03
2013-9-19,36,31,28,29,26,24,94,84,70,29.85,29.70,7,0,7,0.03
2013-9-20,33,28,25,28,25,22,95,88,75,29.71,29.33,9,0,9,0.01
2013-9-21,38,31,27,25,22,19,78,67,54,29.34,29.25,11,1,11,0.00
2013-9-22,30,28,26,27,25,22,96,87,76,29.63,29.34,12,0,12,0.01
2013-9-23,34,28,24,29,25,22,96,88,74,30.01,29.63,5,0,5,0.04
2013-9-24,37,31,27,26,24,21,92,75,61,30.16,29.88,13,1,13,0.02
2013-9-25,53,45,37,38,33,25,78,63,52,29.88,29.51,12,2,12,0.02
2013-9-26,45,41,36,39,37,34,94,85,76,29.74,29.43,11,1,11,0.00
2013-9-27,54,47,42,38,35,33,76,63,47,29.43,29.26,14,2,14,0.00
2013-9-28,44,40,37,38,35,33,95,84,71,29.43,29.34,10,0,10,0.09
2013-9-29,42,38,36,38,34,30,100,85,70,29.73,29.43,18,2,18,0.01
2013-9-30,38,36,32,30,28,28,88,75,69,29.95,29.73,11,1,11,0.00
2013-10-1,35,31,28,32,30,27,97,95,88,30.05,29.95,4,0,4,0.01
2013-10-2,44,38,33,34,32,30,94,78,65,30.05,29.95,7,0,7,0.01
2013-10-3,48,44,40,34,32,31,80,65,54,29.96,29.70,8,0,8,0.00
2013-10-4,42,36,32,34,32,30,96,84,67,29.94,29.69,5,0,5,0.00
2013-10-5,41,34,30,34,31,29,98,89,74,29.95,29.79,8,1,8,0.00
2013-10-6,42,37,30,32,30,28,96,77,66,29.81,29.76,7,1,7,0.00
2013-10-7,33,31,30,32,30,29,98,97,94,29.98,29.81,9,0,9,0.01
2013-10-8,46,41,33,35,31,26,94,69,57,29.84,29.08,19,4,19,0.02
2013-10-9,40,33,31,35,32,31,98,96,80,29.79,29.08,12,2,12,0.07
2013-10-10,36,31,27,33,29,26,98,91,73,29.83,29.75,7,1,7,0.06
2013-10-11,44,39,34,33,31,28,88,74,63,29.95,29.80,7,1,7,0.07
2013-10-12,50,44,40,34,32,31,73,63,53,29.91,29.78,12,3,12,0.00
2013-10-13,47,45,35,35,31,29,96,59,52,29.79,29.48,20,4,20,0.06
2013-10-14,42,38,35,37,35,32,98,87,75,30.03,29.65,12,1,14,0.04
2013-10-15,41,40,40,36,35,35,83,81,80,30.04,30.02,4,0,4,0.00